When you browse on this site, cookies collect data to enhance your experience and personalize the content and advertising you see.
Visit our Privacy Policy to learn more. By continuing to use the site, you agree to this use of cookies and data.
  • în România
  • Lista ţărilor
  • Pe 7 zile
  • Temperatura apei
  • Hartă satelitară
  • Meteo pe hartă
  • Widget-uri
  • user-avatar
    Intrare

    Meteo pe oră la Zinovka

    Astăzi, 19 Februarie, Marţi

    Timp Temperatura Precipitaţii Vânt Presiune Umiditate
    00:00 -13°C° 0 mm 3 m/s 749 mmHg 91%
    01:00 -14°C° 0 mm 3 m/s 750 mmHg 91%
    02:00 -14°C° 0 mm 3 m/s 750 mmHg 92%
    03:00 -14°C° 0 mm 2 m/s 750 mmHg 92%
    04:00 -14°C° 0 mm 2 m/s 750 mmHg 91%
    05:00 -14°C° 0 mm 2 m/s 750 mmHg 91%
    06:00 -14°C° 0 mm 2 m/s 750 mmHg 90%
    07:00 -14°C° 0 mm 2 m/s 750 mmHg 90%
    08:00 -14°C° 0 mm 2 m/s 750 mmHg 90%
    09:00 -14°C° 0 mm 3 m/s 750 mmHg 90%
    10:00 -14°C° 0 mm 4 m/s 750 mmHg 89%
    11:00 -11°C° 0 mm 4 m/s 749 mmHg 88%
    12:00 -10°C° 0 mm 5 m/s 749 mmHg 88%
    13:00 -10°C° 0 mm 5 m/s 748 mmHg 86%
    14:00 -9°C° 0 mm 6 m/s 748 mmHg 85%
    15:00 -6°C° 0 mm 5 m/s 747 mmHg 85%
    16:00 -6°C° 0 mm 5 m/s 747 mmHg 85%
    17:00 -6°C° 0 mm 6 m/s 746 mmHg 85%
    18:00 -6°C° 0 mm 6 m/s 746 mmHg 86%
    19:00 -8°C° 0 mm 6 m/s 746 mmHg 86%
    20:00 -8°C° 0 mm 6 m/s 745 mmHg 86%
    21:00 -8°C° 0 mm 6 m/s 745 mmHg 86%
    22:00 -8°C° 0 mm 6 m/s 744 mmHg 85%
    23:00 -9°C° 0 mm 6 m/s 744 mmHg 84%

    Mâine, 20 Februarie, Miercuri

    Timp Temperatura Precipitaţii Vânt Presiune Umiditate
    00:00 -9°C° 0 mm 6 m/s 743 mmHg 83%
    01:00 -9°C° 0 mm 6 m/s 743 mmHg 83%
    02:00 -9°C° 0 mm 6 m/s 742 mmHg 83%
    03:00 -11°C° 0 mm 7 m/s 742 mmHg 82%
    04:00 -9°C° 0 mm 7 m/s 741 mmHg 84%
    05:00 -9°C° 0 mm 7 m/s 741 mmHg 86%
    06:00 -9°C° 0 mm 7 m/s 740 mmHg 88%
    07:00 -8°C° 0 mm 7 m/s 740 mmHg 89%
    08:00 -7°C° 0 mm 7 m/s 739 mmHg 89%
    09:00 -6°C° 0 mm 7 m/s 739 mmHg 90%
    10:00 -6°C° 0.1 mm 7 m/s 738 mmHg 90%
    11:00 -4°C° 0.1 mm 7 m/s 738 mmHg 89%
    12:00 -3°C° 0.1 mm 7 m/s 738 mmHg 89%
    13:00 -3°C° 0 mm 7 m/s 738 mmHg 90%
    14:00 -2°C° 0 mm 7 m/s 737 mmHg 92%
    15:00 -2°C° 0 mm 7 m/s 737 mmHg 93%
    16:00 -2°C° 0 mm 6 m/s 737 mmHg 93%
    17:00 -2°C° 0 mm 6 m/s 737 mmHg 92%
    18:00 -2°C° 0 mm 6 m/s 737 mmHg 92%
    19:00 -2°C° 0 mm 6 m/s 736 mmHg 92%
    20:00 -1°C° 0 mm 5 m/s 736 mmHg 91%
    21:00 -1°C° 0 mm 5 m/s 736 mmHg 91%
    22:00 -1°C° 0 mm 5 m/s 736 mmHg 91%
    23:00 -2°C° 0 mm 6 m/s 735 mmHg 90%

    Poimâine, 21 Februarie, Joi

    Timp Temperatura Precipitaţii Vânt Presiune Umiditate
    00:00 -2°C° 0 mm 6 m/s 735 mmHg 89%
    01:00 -2°C° 0.1 mm 6 m/s 734 mmHg 90%
    02:00 -2°C° 0.1 mm 6 m/s 734 mmHg 90%
    03:00 -2°C° 0.1 mm 6 m/s 733 mmHg 90%
    04:00 -2°C° 0.4 mm 6 m/s 733 mmHg 91%
    05:00 -2°C° 0.4 mm 6 m/s 732 mmHg 91%
    06:00 -2°C° 0.4 mm 6 m/s 732 mmHg 91%
    07:00 -4°C° 0.4 mm 6 m/s 732 mmHg 90%
    08:00 -6°C° 0.4 mm 6 m/s 732 mmHg 89%
    09:00 -8°C° 0.4 mm 6 m/s 732 mmHg 89%
    10:00 -8°C° 0 mm 6 m/s 732 mmHg 88%
    11:00 -6°C° 0 mm 6 m/s 733 mmHg 87%
    12:00 -5°C° 0 mm 6 m/s 733 mmHg 86%
    13:00 -5°C° 0.1 mm 6 m/s 733 mmHg 86%
    14:00 -6°C° 0.1 mm 7 m/s 733 mmHg 86%
    15:00 -6°C° 0.1 mm 7 m/s 733 mmHg 86%
    16:00 -7°C° 0.2 mm 7 m/s 733 mmHg 87%
    17:00 -7°C° 0.2 mm 7 m/s 733 mmHg 88%
    18:00 -7°C° 0.2 mm 7 m/s 733 mmHg 89%
    19:00 -7°C° 0.2 mm 7 m/s 734 mmHg 88%
    20:00 -8°C° 0.2 mm 8 m/s 734 mmHg 88%
    21:00 -9°C° 0.2 mm 9 m/s 735 mmHg 87%
    22:00 -10°C° 0 mm 9 m/s 735 mmHg 86%
    23:00 -11°C° 0 mm 8 m/s 736 mmHg 86%

    22 Februarie, Vineri

    Timp Temperatura Precipitaţii Vânt Presiune Umiditate
    00:00 -12°C° 0 mm 8 m/s 736 mmHg 85%
    01:00 -13°C° 0 mm 8 m/s 737 mmHg 85%
    02:00 -15°C° 0 mm 8 m/s 737 mmHg 85%
    03:00 -15°C° 0 mm 8 m/s 738 mmHg 85%
    04:00 -16°C° 0.1 mm 8 m/s 738 mmHg 85%
    05:00 -16°C° 0.1 mm 8 m/s 739 mmHg 85%
    06:00 -17°C° 0.1 mm 8 m/s 739 mmHg 85%
    07:00 -17°C° 0 mm 8 m/s 740 mmHg 84%
    08:00 -18°C° 0 mm 8 m/s 740 mmHg 84%
    09:00 -18°C° 0 mm 8 m/s 741 mmHg 83%
    10:00 -18°C° 0 mm 8 m/s 741 mmHg 82%
    11:00 -17°C° 0 mm 8 m/s 741 mmHg 82%
    12:00 -17°C° 0 mm 8 m/s 742 mmHg 81%
    13:00 -17°C° 0 mm 7 m/s 742 mmHg 81%
    14:00 -17°C° 0 mm 7 m/s 742 mmHg 81%
    15:00 -15°C° 0 mm 7 m/s 743 mmHg 81%
    16:00 -16°C° 0.1 mm 6 m/s 743 mmHg 83%
    17:00 -16°C° 0.1 mm 6 m/s 744 mmHg 85%
    18:00 -16°C° 0.1 mm 6 m/s 744 mmHg 87%
    19:00 -16°C° 0.1 mm 6 m/s 745 mmHg 88%
    20:00 -15°C° 0.1 mm 5 m/s 745 mmHg 89%
    21:00 -17°C° 0.1 mm 5 m/s 746 mmHg 90%
    22:00 -17°C° 0 mm 5 m/s 746 mmHg 90%
    23:00 -17°C° 0 mm 5 m/s 747 mmHg 90%

    23 Februarie, Sâmbătă

    Timp Temperatura Precipitaţii Vânt Presiune Umiditate
    00:00 -17°C° 0 mm 4 m/s 747 mmHg 90%
    01:00 -16°C° 0 mm 4 m/s 748 mmHg 90%
    02:00 -17°C° 0 mm 5 m/s 748 mmHg 90%
    03:00 -17°C° 0 mm 5 m/s 749 mmHg 91%
    04:00 -17°C° 0 mm 5 m/s 749 mmHg 91%
    05:00 -17°C° 0 mm 5 m/s 749 mmHg 90%
    06:00 -17°C° 0 mm 5 m/s 750 mmHg 90%
    07:00 -17°C° 0 mm 5 m/s 750 mmHg 90%
    08:00 -18°C° 0 mm 5 m/s 751 mmHg 90%
    09:00 -18°C° 0 mm 5 m/s 751 mmHg 90%
    10:00 -18°C° 0 mm 5 m/s 752 mmHg 89%
    11:00 -17°C° 0 mm 5 m/s 752 mmHg 89%
    12:00 -16°C° 0 mm 4 m/s 752 mmHg 88%
    13:00 -15°C° 0 mm 4 m/s 752 mmHg 88%
    14:00 -15°C° 0 mm 4 m/s 752 mmHg 88%
    15:00 -15°C° 0 mm 4 m/s 753 mmHg 88%
    16:00 -15°C° 0 mm 4 m/s 753 mmHg 89%
    17:00 -15°C° 0 mm 3 m/s 753 mmHg 91%
    18:00 -14°C° 0 mm 2 m/s 753 mmHg 93%
    19:00 -14°C° 0 mm 2 m/s 753 mmHg 93%
    20:00 -14°C° 0 mm 2 m/s 753 mmHg 94%
    21:00 -14°C° 0 mm 2 m/s 754 mmHg 95%
    22:00 -14°C° 0 mm 2 m/s 754 mmHg 95%
    23:00 -14°C° 0 mm 2 m/s 754 mmHg 96%

    24 Februarie, Duminică

    Timp Temperatura Precipitaţii Vânt Presiune Umiditate
    00:00 -14°C° 0 mm 2 m/s 754 mmHg 96%
    01:00 -15°C° 0 mm 2 m/s 754 mmHg 96%
    02:00 -15°C° 0 mm 2 m/s 754 mmHg 96%
    03:00 -15°C° 0 mm 2 m/s 754 mmHg 96%
    04:00 -15°C° 0 mm 2 m/s 754 mmHg 96%
    05:00 -16°C° 0 mm 2 m/s 755 mmHg 96%
    06:00 -16°C° 0 mm 2 m/s 755 mmHg 96%
    07:00 -16°C° 0 mm 2 m/s 755 mmHg 96%
    08:00 -16°C° 0 mm 2 m/s 755 mmHg 96%
    09:00 -16°C° 0 mm 3 m/s 756 mmHg 95%
    10:00 -16°C° 0 mm 3 m/s 756 mmHg 95%
    11:00 -15°C° 0 mm 3 m/s 756 mmHg 94%
    12:00 -15°C° 0 mm 3 m/s 756 mmHg 93%
    13:00 -14°C° 0 mm 3 m/s 756 mmHg 93%
    14:00 -14°C° 0 mm 3 m/s 756 mmHg 92%
    15:00 -13°C° 0 mm 3 m/s 756 mmHg 91%
    16:00 -14°C° 0 mm 3 m/s 756 mmHg 92%
    17:00 -14°C° 0 mm 3 m/s 756 mmHg 93%
    18:00 -14°C° 0 mm 3 m/s 756 mmHg 94%
    19:00 -15°C° 0 mm 3 m/s 756 mmHg 94%
    20:00 -15°C° 0 mm 3 m/s 756 mmHg 94%
    21:00 -15°C° 0 mm 3 m/s 756 mmHg 94%
    22:00 -15°C° 0 mm 3 m/s 756 mmHg 94%
    23:00 -15°C° 0 mm 3 m/s 756 mmHg 94%
    Arată mai mult